NE1NH Weather Reports


time (UTC)temp
F
wind
direction
speed
knots
gust
knots
rain 1hr
in
rain 24hr
in
rain mn
in
humidity
%
barometer
mb
20260901161523 66 352 0.0 1.7 0.01 0.20 0.20 92 1017.3
20260901161012 66 9 0.0 1.7 0.01 0.20 0.20 92 1017.2
20260901160514 66 136 0.9 2.6 0.01 0.20 0.20 92 1017.3
20260901160030 67 213 0.0 2.6 0.00 0.19 0.19 92 1017.3
20260901155513 67 189 0.0 1.7 0.00 0.19 0.19 93 1017.2
20260901155018 66 88 0.0 1.7 0.00 0.19 0.19 92 1017.1
20260901154530 66 121 0.0 1.7 0.00 0.19 0.19 92 1017.2
20260901154018 66 211 0.0 1.7 0.00 0.19 0.19 92 1017.3
20260901153518 66 46 0.0 1.7 0.00 0.19 0.19 92 1017.4
20260901153032 66 106 0.0 1.7 0.00 0.19 0.19 92 1017.5
20260901152508 66 21 0.0 1.7 0.00 0.19 0.19 92 1017.6
20260901152010 66 21 0.0 1.7 0.00 0.19 0.19 92 1017.7
20260901151524 66 250 0.0 0.9 0.00 0.19 0.19 92 1017.8
20260901151013 66 144 0.0 1.7 0.00 0.19 0.19 92 1017.8
20260901150514 66 143 0.0 1.7 0.00 0.19 0.19 92 1017.9
20260901150028 66 130 0.0 1.7 0.00 0.19 0.19 92 1017.8
20260901145514 66 299 0.0 2.6 0.00 0.19 0.19 92 1017.8
20260901145016 66 57 0.0 2.6 0.00 0.19 0.19 92 1017.8
20260901144537 66 117 0.0 1.7 0.00 0.19 0.19 93 1017.7
20260901144016 66 60 0.0 1.7 0.00 0.19 0.19 92 1017.8
20260901143514 66 52 0.0 2.6 0.01 0.19 0.19 92 1017.9
20260901143035 67 89 0.9 2.6 0.02 0.19 0.19 92 1017.9
20260901142518 67 197 0.0 2.6 0.02 0.19 0.19 92 1018.0
20260901142016 67 34 0.0 2.6 0.04 0.19 0.19 92 1017.9
20260901141519 66 319 0.0 1.7 0.05 0.19 0.19 93 1017.8
20260901141008 65 46 0.0 1.7 0.07 0.19 0.19 92 1017.8
20260901140512 65 64 0.0 2.6 0.09 0.19 0.19 92 1018.0
20260901140028 65 41 0.9 2.6 0.09 0.19 0.19 91 1018.2
20260901135512 65 49 0.0 1.7 0.09 0.19 0.19 91 1018.3
20260901135012 65 74 0.0 1.7 0.09 0.19 0.19 91 1018.1
20260901134528 65 20 0.0 0.0 0.09 0.19 0.19 91 1018.1
20260901134015 65 360 0.0 0.0 0.09 0.19 0.19 91 1018.1
20260901133515 65 352 0.0 0.0 0.08 0.18 0.18 91 1018.2
20260901133039 64 22 0.0 0.0 0.07 0.17 0.17 91 1018.3
20260901132516 64 22 0.0 0.0 0.08 0.17 0.17 91 1018.4
20260901132014 64 22 0.0 0.0 0.06 0.15 0.15 91 1018.5
20260901131514 64 22 0.0 0.0 0.05 0.14 0.14 91 1018.6
20260901131008 64 22 0.0 0.0 0.04 0.12 0.12 91 1018.5
20260901130508 64 22 0.0 0.0 0.04 0.10 0.10 91 1018.2
20260901130024 64 22 0.0 0.0 0.06 0.10 0.10 90 1018.2
20260901125511 64 22 0.0 0.0 0.08 0.10 0.10 90 1018.1
20260901125013 64 22 0.0 0.0 0.09 0.10 0.10 90 1018.1
20260901124527 64 22 0.0 0.0 0.09 0.10 0.10 90 1018.2
20260901124012 64 333 0.0 0.0 0.10 0.10 0.10 90 1018.2
20260901123517 64 15 0.0 0.0 0.10 0.10 0.10 90 1018.0
20260901123031 64 15 0.0 0.0 0.10 0.10 0.10 90 1017.8
20260901122516 64 15 0.0 0.0 0.09 0.09 0.09 90 1018.0
20260901122003 64 15 0.0 0.0 0.09 0.09 0.09 90 1018.1
20260901121518 64 15 0.0 0.0 0.09 0.09 0.09 90 1018.2
20260901121010 64 15 0.0 0.0 0.08 0.08 0.08 90 1018.2
20260901120511 64 15 0.0 0.0 0.06 0.06 0.06 90 1018.1
20260901120021 64 15 0.0 1.7 0.04 0.04 0.04 89 1018.1
20260901115508 64 15 0.0 1.7 0.02 0.02 0.02 89 1018.2
20260901115014 64 15 0.0 0.0 0.01 0.01 0.01 89 1018.4
20260901114526 64 15 0.0 0.0 0.01 0.01 0.01 89 1018.3
20260901114012 64 15 0.0 0.0 0.00 0.00 0.00 89 1018.2
20260901113515 64 15 0.0 0.0 0.00 0.00 0.00 89 1018.2
20260901113029 64 15 0.0 0.0 0.00 0.00 0.00 89 1018.2
20260901112515 64 15 0.0 0.0 0.00 0.00 0.00 89 1018.1
20260901112015 64 15 0.0 0.0 0.00 0.00 0.00 89 1018.0
20260901111533 64 15 0.0 0.0 0.00 0.00 0.00 89 1017.9
20260901111006 64 15 0.0 0.0 0.00 0.00 0.00 89 1017.9
20260901110507 64 15 0.0 1.7 0.00 0.00 0.00 89 1017.9
20260901110033 64 15 0.0 1.7 0.00 0.00 0.00 89 1017.8
20260901105508 64 15 0.0 1.7 0.00 0.00 0.00 88 1017.8
20260901105014 64 15 0.0 0.0 0.00 0.00 0.00 88 1017.8
20260901104526 64 15 0.0 0.0 0.00 0.00 0.00 88 1017.9
20260901104016 64 15 0.0 0.0 0.00 0.00 0.00 88 1017.9
20260901103511 64 15 0.0 0.0 0.00 0.00 0.00 88 1017.9
20260901103029 64 15 0.0 0.0 0.00 0.00 0.00 88 1017.9
20260901102514 64 15 0.0 0.0 0.00 0.00 0.00 88 1017.9
20260901102014 64 15 0.0 0.0 0.00 0.00 0.00 88 1017.7
20260901101512 64 15 0.0 0.0 0.00 0.00 0.00 88 1017.7
20260901101011 64 15 0.0 0.0 0.00 0.00 0.00 88 1017.8
20260901100507 64 15 0.0 0.0 0.00 0.00 0.00 88 1017.7
20260901100016 64 15 0.0 0.0 0.00 0.00 0.00 88 1017.7
20260901095508 65 15 0.0 0.0 0.00 0.00 0.00 88 1017.7
20260901095010 65 15 0.0 0.0 0.00 0.00 0.00 88 1017.7
20260901094528 65 15 0.0 0.0 0.00 0.00 0.00 88 1017.7
20260901094001 65 15 0.0 0.0 0.00 0.00 0.00 88 1017.7
20260901093501 65 15 0.0 1.7 0.00 0.00 0.00 87 1017.7
20260901093003 65 15 0.0 1.7 0.00 0.00 0.00 87 1017.7
20260901092504 65 15 0.0 0.9 0.00 0.00 0.00 87 1017.8
20260901092004 65 15 0.0 0.0 0.00 0.00 0.00 87 1017.9
20260901091512 65 15 0.0 0.0 0.00 0.00 0.00 87 1017.8
20260901091004 65 15 0.0 0.0 0.00 0.00 0.00 86 1017.9
20260901090506 65 15 0.0 0.0 0.00 0.00 0.00 86 1017.8
20260901090016 65 15 0.0 0.0 0.00 0.00 0.00 86 1017.8
20260901085512 65 15 0.0 0.9 0.00 0.00 0.00 86 1017.8
20260901085008 65 15 0.0 1.7 0.00 0.00 0.00 86 1017.8
20260901084523 65 15 0.0 1.7 0.00 0.00 0.00 86 1017.6
20260901084014 65 5 0.0 1.7 0.00 0.00 0.00 85 1017.8
20260901083512 65 57 0.0 1.7 0.00 0.00 0.00 85 1017.8
20260901083003 65 184 0.0 0.0 0.00 0.00 0.00 85 1017.8
20260901082503 65 183 0.0 0.9 0.00 0.00 0.00 85 1017.9
20260901082006 65 183 0.0 1.7 0.00 0.00 0.00 85 1018.0
20260901081509 66 183 0.0 1.7 0.00 0.00 0.00 85 1018.1
20260901081003 66 234 0.0 1.7 0.00 0.00 0.00 84 1018.1
20260901080503 66 234 0.0 0.0 0.00 0.00 0.00 84 1018.2
20260901080012 66 234 0.0 0.0 0.00 0.00 0.00 84 1018.3
20260901075504 66 234 0.0 0.0 0.00 0.00 0.00 84 1018.3
20260901075008 66 234 0.0 1.7 0.00 0.00 0.00 84 1018.3
20260901074520 66 234 0.0 1.7 0.00 0.00 0.00 84 1018.4
20260901074008 66 234 0.0 0.0 0.00 0.00 0.00 84 1018.5
20260901073512 66 234 0.0 0.0 0.00 0.00 0.00 84 1018.5
20260901073026 66 234 0.0 1.7 0.00 0.00 0.00 84 1018.5
20260901072512 66 289 0.0 1.7 0.00 0.00 0.00 84 1018.4
20260901072011 66 176 0.0 1.7 0.00 0.00 0.00 84 1018.3
20260901071507 66 269 0.0 1.7 0.00 0.00 0.00 84 1018.3
20260901071005 66 221 0.0 0.0 0.00 0.00 0.00 83 1018.4
20260901070504 66 221 0.0 0.0 0.00 0.00 0.00 84 1018.3
20260901070022 66 221 0.0 0.0 0.00 0.00 0.00 84 1018.5
20260901065506 66 231 0.0 1.7 0.00 0.00 0.00 84 1018.4
20260901065004 66 231 0.0 1.7 0.00 0.00 0.00 83 1018.4
20260901064516 66 234 0.0 0.9 0.00 0.00 0.00 83 1018.4
20260901064007 66 234 0.0 1.7 0.00 0.00 0.00 83 1018.5
20260901063507 66 210 0.0 1.7 0.00 0.00 0.00 83 1018.3
20260901063025 66 306 0.0 1.7 0.00 0.00 0.00 83 1018.4
20260901062512 66 306 0.0 1.7 0.00 0.00 0.00 83 1018.4
20260901062012 66 232 0.0 1.7 0.00 0.00 0.00 83 1018.5
20260901061527 66 232 0.0 1.7 0.00 0.00 0.00 83 1018.5
20260901061012 66 216 0.0 1.7 0.00 0.00 0.00 83 1018.5
20260901060501 66 216 0.0 1.7 0.00 0.00 0.00 83 1018.6
20260901060008 66 181 0.0 1.7 0.00 0.00 0.00 82 1018.6
20260901055505 66 207 0.0 1.7 0.00 0.00 0.00 82 1018.6
20260901055004 66 173 0.0 1.7 0.00 0.00 0.00 82 1018.6
20260901054514 66 261 0.0 0.0 0.00 0.00 0.00 82 1018.6
20260901054004 66 261 0.0 0.0 0.00 0.00 0.00 82 1018.6
20260901053509 66 286 0.0 1.7 0.00 0.00 0.00 81 1018.6
20260901053023 66 176 0.0 1.7 0.00 0.00 0.00 81 1018.6
20260901052510 66 227 0.0 0.0 0.00 0.00 0.00 81 1018.6
20260901052012 66 228 0.0 1.7 0.00 0.00 0.00 81 1018.7
20260901051530 66 284 0.0 1.7 0.00 0.00 0.00 81 1018.8
20260901051016 66 277 0.0 1.7 0.00 0.00 0.00 81 1018.8
20260901050513 66 269 0.0 1.7 0.00 0.00 0.00 81 1019.0
20260901050031 66 285 0.0 1.7 0.00 0.00 0.00 80 1018.9
20260901045513 66 311 0.0 0.0 0.00 0.00 0.00 80 1018.8
20260901045003 66 304 0.0 0.0 0.00 0.00 0.00 80 1018.8
20260901044512 66 304 0.0 0.0 0.00 0.00 0.00 80 1018.8
20260901044007 66 248 0.0 0.0 0.00 0.00 0.00 80 1018.8
20260901043504 66 288 0.0 0.0 0.00 0.00 0.00 79 1018.9
20260901043016 66 265 0.0 0.0 0.00 0.00 0.00 79 1019.1
20260901042507 66 221 0.0 0.0 0.00 0.00 0.00 79 1019.0
20260901042007 66 221 0.0 0.0 0.00 0.00 0.00 79 1019.1
20260901041526 66 221 0.0 2.6 0.00 0.00 0.00 79 1018.9
20260901041015 66 221 0.0 2.6 0.00 0.00 0.00 79 1018.9
20260901040512 66 225 0.0 1.7 0.00 0.00 0.00 78 1018.9
20260901040030 66 243 0.0 1.7 0.00 0.00 0.00 78 1018.9
20260901035521 66 222 0.0 1.7 0.00 0.00 0.00 78 1018.9
20260901035018 66 215 0.0 1.7 0.00 0.00 0.00 78 1019.1
20260901034528 67 263 0.0 2.6 0.00 0.00 0.00 77 1019.1
20260901034004 67 207 0.0 2.6 0.00 0.00 0.00 77 1019.0
20260901033505 67 219 0.0 1.7 0.00 0.00 0.00 77 1019.1
20260901033016 67 236 0.0 1.7 0.00 0.00 0.00 77 1019.2
20260901032508 67 226 0.0 1.7 0.00 0.00 0.00 76 1019.3
20260901032009 67 220 0.0 1.7 0.00 0.00 0.00 76 1019.3
20260901031520 67 221 0.0 1.7 0.00 0.00 0.00 76 1019.1
20260901031011 67 206 0.0 1.7 0.00 0.00 0.00 76 1019.1
20260901030514 67 206 0.0 2.6 0.00 0.00 0.00 75 1019.1
20260901030027 67 286 0.0 2.6 0.00 0.00 0.00 75 1019.1
20260901025512 67 236 0.0 2.6 0.00 0.00 0.00 75 1019.1
20260901025016 67 221 0.0 2.6 0.00 0.00 0.00 74 1019.0
20260901024530 68 138 0.0 2.6 0.00 0.00 0.00 74 1018.9
20260901024012 68 273 0.0 3.5 0.00 0.00 0.00 74 1018.9
20260901023514 68 277 0.0 3.5 0.00 0.00 0.00 73 1018.9
20260901023034 68 190 0.0 1.7 0.00 0.00 0.00 73 1018.9
20260901022504 68 248 0.0 1.7 0.00 0.00 0.00 73 1018.9
20260901022008 68 248 0.0 2.6 0.00 0.00 0.00 73 1018.9
20260901021519 68 250 0.0 2.6 0.00 0.00 0.00 73 1019.0
20260901021008 68 202 0.9 1.7 0.00 0.00 0.00 73 1019.0
20260901020507 68 220 0.0 1.7 0.00 0.00 0.00 73 1019.0
20260901020021 69 225 0.0 1.7 0.00 0.00 0.00 74 1019.1
20260901015512 69 126 0.0 3.5 0.00 0.00 0.00 74 1019.1
20260901015013 69 227 0.0 3.5 0.00 0.00 0.00 74 1019.2
20260901014529 69 189 0.0 1.7 0.00 0.00 0.00 74 1019.1
20260901014014 69 225 0.0 1.7 0.00 0.00 0.00 74 1019.1
20260901013516 69 214 0.0 1.7 0.00 0.00 0.00 74 1019.1
20260901013029 69 210 0.0 1.7 0.00 0.00 0.00 75 1019.1
20260901012515 69 209 0.0 1.7 0.00 0.00 0.00 75 1019.1
20260901012019 70 210 0.0 1.7 0.00 0.00 0.00 75 1019.2
20260901011512 70 265 0.0 2.6 0.00 0.00 0.00 75 1019.2
20260901011008 70 214 0.0 3.5 0.00 0.00 0.00 75 1019.1
20260901010507 70 197 0.0 3.5 0.00 0.00 0.00 75 1019.1
20260901010017 70 211 0.0 2.6 0.00 0.00 0.00 75 1019.1
20260901005511 70 219 0.0 1.7 0.00 0.00 0.00 75 1019.1
20260901005014 70 217 0.9 2.6 0.00 0.00 0.00 74 1019.1
20260901004526 70 190 0.0 2.6 0.00 0.00 0.00 74 1019.2
20260901004014 70 216 0.0 1.7 0.00 0.00 0.00 74 1019.1
20260901003514 71 290 0.0 1.7 0.00 0.00 0.00 73 1019.0
20260901003029 71 210 0.0 2.6 0.00 0.00 0.00 72 1019.0
20260901002520 71 233 0.0 2.6 0.00 0.00 0.00 72 1018.9
20260901002018 71 257 0.0 1.7 0.00 0.00 0.00 71 1018.9
20260901001533 71 258 0.0 1.7 0.00 0.00 0.00 71 1018.9
20260901001016 71 260 0.0 1.7 0.00 0.00 0.00 70 1018.8
20260901000508 71 259 0.0 1.7 0.00 0.00 0.00 69 1018.8
20260901000021 72 254 0.0 0.9 0.00 0.00 0.00 67 1018.8
20260831235510 72 225 0.0 1.7 0.00 0.00 0.00 67 1018.8
20260831235012 72 244 0.0 1.7 0.00 0.00 0.00 66 1018.9
20260831234535 72 228 0.0 0.0 0.00 0.00 0.00 66 1018.9
20260831234012 72 228 0.0 0.0 0.00 0.00 0.00 66 1018.9
20260831233517 72 228 0.0 0.0 0.00 0.00 0.00 66 1018.9
20260831233026 72 229 0.0 0.0 0.00 0.00 0.00 66 1018.9
20260831232512 73 228 0.0 0.0 0.00 0.00 0.00 65 1019.1
20260831232015 73 228 0.0 0.0 0.00 0.00 0.00 65 1019.1
20260831231533 73 228 0.0 0.0 0.00 0.00 0.00 64 1019.2
20260831231019 73 228 0.0 0.0 0.00 0.00 0.00 64 1019.2
20260831230518 73 228 0.0 0.0 0.00 0.00 0.00 64 1019.1
20260831230032 73 228 0.0 0.0 0.00 0.00 0.00 64 1019.1
20260831225524 73 228 0.0 0.0 0.00 0.00 0.00 63 1019.1
20260831225011 74 229 0.0 0.0 0.00 0.00 0.00 63 1019.1
20260831224522 74 228 0.0 0.0 0.00 0.00 0.00 63 1019.1
20260831224013 74 228 0.0 1.7 0.00 0.00 0.00 63 1019.1
20260831223512 74 228 0.0 1.7 0.00 0.00 0.00 63 1019.2
20260831223031 74 202 0.0 1.7 0.00 0.00 0.00 62 1019.2
20260831222514 74 238 0.0 0.9 0.00 0.00 0.00 62 1019.2
20260831222020 74 245 0.0 1.7 0.00 0.00 0.00 62 1019.3
20260831221528 74 244 0.0 1.7 0.00 0.00 0.00 62 1019.3
20260831221014 75 292 0.0 1.7 0.00 0.00 0.00 63 1019.3
20260831220514 75 292 0.0 1.7 0.00 0.00 0.00 63 1019.3
20260831220032 75 317 0.0 1.7 0.00 0.00 0.00 63 1019.3
20260831215514 75 250 0.0 0.9 0.00 0.00 0.00 62 1019.2
20260831215020 75 236 0.0 1.7 0.00 0.00 0.00 62 1019.3
20260831214542 75 227 0.0 1.7 0.00 0.00 0.00 62 1019.4
20260831214010 75 102 0.0 1.7 0.00 0.00 0.00 62 1019.3
20260831213512 75 208 0.0 1.7 0.00 0.00 0.00 62 1019.3
20260831213036 75 219 0.0 2.6 0.00 0.00 0.00 63 1019.2
20260831212513 75 327 0.0 2.6 0.00 0.00 0.00 62 1019.2
20260831212016 75 275 0.0 1.7 0.00 0.00 0.00 62 1019.2
20260831211527 75 241 0.0 2.6 0.00 0.00 0.00 61 1019.1
20260831211014 75 270 0.0 2.6 0.00 0.00 0.00 60 1019.2
20260831210515 75 300 0.0 2.6 0.00 0.00 0.00 61 1019.2
20260831210033 75 84 0.0 2.6 0.00 0.00 0.00 59 1019.1
20260831205517 75 69 0.0 2.6 0.00 0.00 0.00 61 1019.2
20260831205021 75 238 0.0 1.7 0.00 0.00 0.00 60 1019.3
20260831204534 75 186 0.0 1.7 0.00 0.00 0.00 60 1019.4
20260831204016 75 188 0.0 1.7 0.00 0.00 0.00 60 1019.4
20260831203517 76 164 0.0 1.7 0.00 0.00 0.00 57 1019.4
20260831203038 76 283 0.0 1.7 0.00 0.00 0.00 58 1019.3
20260831202511 75 279 0.0 1.7 0.00 0.00 0.00 59 1019.3
20260831202014 75 246 0.0 1.7 0.00 0.00 0.00 60 1019.3
20260831201528 75 237 0.0 1.7 0.00 0.00 0.00 59 1019.3
20260831201013 75 270 0.0 1.7 0.00 0.00 0.00 58 1019.3
20260831200515 76 142 0.0 1.7 0.00 0.00 0.00 55 1019.1
20260831200037 77 132 0.9 2.6 0.00 0.00 0.00 54 1018.9
20260831195513 77 36 0.0 2.6 0.00 0.00 0.00 56 1019.1
20260831195024 76 199 0.9 5.2 0.00 0.00 0.00 54 1019.2
20260831194531 77 219 1.7 5.2 0.00 0.00 0.00 53 1019.4
20260831194016 76 71 0.0 1.7 0.00 0.00 0.00 58 1019.4
20260831193519 76 336 0.0 1.7 0.00 0.00 0.00 56 1019.4
20260831193036 76 155 0.0 1.7 0.00 0.00 0.00 53 1019.6
20260831192517 77 84 0.0 1.7 0.00 0.00 0.00 52 1019.7
20260831192015 78 218 0.0 1.7 0.00 0.00 0.00 49 1019.7
20260831191524 79 205 0.0 1.7 0.00 0.00 0.00 50 1019.8
20260831191014 79 352 0.0 1.7 0.00 0.00 0.00 50 1019.9
20260831190513 79 176 0.0 1.7 0.00 0.00 0.00 48 1020.0
20260831190045 80 291 0.0 1.7 0.00 0.00 0.00 48 1020.0
20260831185514 80 317 0.9 1.7 0.00 0.00 0.00 48 1020.0
20260831185014 80 220 0.0 1.7 0.00 0.00 0.00 49 1019.9
20260831184532 80 232 0.0 1.7 0.00 0.00 0.00 49 1020.0
20260831184018 80 281 0.0 1.7 0.00 0.00 0.00 48 1019.9
20260831183521 80 325 0.0 1.7 0.00 0.00 0.00 49 1020.1
20260831183037 79 36 0.9 1.7 0.00 0.00 0.00 49 1020.1
20260831182508 79 156 0.0 1.7 0.00 0.00 0.00 50 1020.3
20260831182007 79 107 0.0 1.7 0.00 0.00 0.00 49 1020.3
20260831181520 78 109 0.0 1.7 0.00 0.00 0.00 47 1020.3
20260831181011 78 110 0.0 1.7 0.00 0.00 0.00 50 1020.5
20260831180510 78 183 0.0 1.7 0.00 0.00 0.00 51 1020.5
20260831180020 77 316 0.9 1.7 0.00 0.00 0.00 52 1020.5
20260831175507 77 105 0.0 1.7 0.00 0.00 0.00 51 1020.5
20260831175006 77 186 0.9 1.7 0.00 0.00 0.00 51 1020.6
20260831174514 76 74 0.0 1.7 0.00 0.00 0.00 53 1020.6
20260831174009 76 13 0.0 0.9 0.00 0.00 0.00 55 1020.7
20260831173511 76 113 0.0 1.7 0.00 0.00 0.00 56 1020.9
20260831173015 76 119 0.0 1.7 0.00 0.00 0.00 54 1021.0
20260831172507 76 118 0.0 2.6 0.00 0.00 0.00 54 1020.9
20260831172007 76 118 0.0 2.6 0.00 0.00 0.00 55 1020.9
20260831171524 75 98 0.9 2.6 0.00 0.00 0.00 55 1020.9
20260831171008 75 40 0.0 1.7 0.00 0.00 0.00 57 1020.9
20260831170512 75 296 0.0 1.7 0.00 0.00 0.00 58 1020.8
20260831170032 74 236 0.0 1.7 0.00 0.00 0.00 58 1021.0
20260831165514 74 219 0.0 1.7 0.00 0.00 0.00 56 1021.1
20260831165009 74 316 0.0 1.7 0.00 0.00 0.00 53 1021.1
20260831164521 72 56 0.0 1.7 0.00 0.00 0.00 60 1021.3
20260831164004 71 63 0.0 1.7 0.00 0.00 0.00 61 1021.3
20260831163505 71 63 0.0 1.7 0.00 0.00 0.00 59 1021.1
20260831163013 72 53 0.0 1.7 0.00 0.00 0.00 54 1021.2
20260831162510 71 49 0.0 1.7 0.00 0.00 0.00 58 1021.2
20260831162009 71 49 0.9 1.7 0.00 0.00 0.00 59 1021.4